Showing default

NUSAT-43 (R DIENG-KUNTZ), 56968

Orbit data source: Space-Track

NUSAT-43 (R DIENG-KUNTZ), 56968 is a payload satellite owned by URUGUS S.A. (AR) in SSO that was launched on Mon, 12 Jun 2023 UTC via an FALCON 9 launch vehicle from the Air Force Western Test Range (AFWTR). Payload-class satellites include a variety of spacecraft equipped with specific instruments for various scientific and technological missions. These include communications satellites like Starlink; space stations such as the ISS; scientific satellites like the Hubble; Earth observation satellites from companies like Planet Labs, Umbra, and HawkEye 360; GPS; miniature CubeSats for education and research; and military/defense satellites.

Loading next visibility...
Identifier
56968, 2023-084AN
Orbit
SSO
Country
Flag of UnknownUnknown / ARGN
Related business
Manufacturer
URUGUS S.A.
Mission
Operational Commercial Imaging
Bus & Motor
NEWSAT V, Unknown motor
Mass
41.5 kg wet, 38.5 kg dry
Launch date (UTC)
2023-06-12 (3 years ago)
Launch vehicle
FALCON 9
Launch site
Air Force Western Test Range (AFWTR)
Object type
Payload
Rocket body
Debris
Shape & HBR
Box, 1.0 m
Radar Cross Section
0.542 m², Medium (>0.1 m² and < 1m²)

Expand to show TLE details & history
Last TLE update: 6 hours ago

TLE from 6 hours ago
0 NUSAT-43 (R DIENG-KUNTZ)
1 56968U 23084AN  25354.91334187  .00047480  00000-0  59008-3 0  9994
2 56968  97.4345 127.6198 0005440 160.5524 199.5941 15.59834819141230
Epoch: 2025-12-20T21:55Z
TLE epoch observation values (Epoch: 2025-12-20T21:55:12.737Z)
Latitude
-0.00004°
Longitude
69.08341°
Altitude
394.747 km
Speed
7.671 km/s
True Right ascension
08h 30m 28s
True Declination
0° 00' 00"
Sunlit
Object was in full shadow at epoch
Visualization orbit readout
Latitude
Unknown
Longitude
Unknown
Altitude
Unknown
Speed
Unknown
Apparent Right ascension
Unknown
Apparent Declination
Unknown
Sunlit
N/A
Visualization observer readout
Local Sidereal Time
03:12:18
Azimuth
Unknown
Elevation
Unknown
Doppler factor
Unknown
Orbital elements
Apogee altitude
388.728 km
Perigee altitude
381.37 km
Semi-major axis
6,763.186 km
Eccentricity
0.00054
Inclination
97.4345°
RAAN
127.6198°
Arg. of periapsis
160.5524°
True anomaly
199.57321°
Mean anomaly
199.5941°
Eccentric anomaly
199.58365°
Mean motion
3.90226 °/min
Orbital period
92.25 mins
BSTAR
0.00059008
Loading maneuver chart data...
Computing Atmospheric mass density...
Loading historical data...
Loading historical data...
Loading historical data...
Loading historical data...
Loading historical data...
Loading historical data...
Loading historical data...

Documentation

Showing up to 5 results
|